Simultaneous Nadir Overpasses (SNOs) Predictions

Prediction of SNOs between AQUA and GOES-15 Satellite Orbit:

Table of predicted SNOs for the next 14.0 days since TLE Epoch: 4/27/2018
Index Date Time (AQUA) AQUA Lat,Lon GOES-15 Lat,Lon Distance(km) Time Diff (sec)
1 04/27/2018 22:29:37 0.33,-133.40 -0.10,-135.48 235.39 80
2 04/28/2018 10:50:53 0.74,-138.57 0.09,-135.47 352.13 80
3 04/30/2018 10:38:40 0.09,-135.61 0.09,-135.48 14.09 80
4 05/02/2018 10:26:26 -0.51,-132.64 0.09,-135.49 324.15 80
5 05/02/2018 22:47:50 -0.56,-137.84 -0.08,-135.51 264.48 80
6 05/04/2018 22:35:36 0.04,-134.87 -0.08,-135.51 72.69 80
7 05/06/2018 22:23:23 0.70,-131.91 -0.09,-135.50 409.38 80
8 05/07/2018 10:44:38 0.41,-137.06 0.08,-135.49 178.72 80
9 05/09/2018 10:32:24 -0.20,-134.09 0.08,-135.48 157.42 80
10 05/09/2018 22:53:48 -0.87,-139.29 -0.07,-135.49 431.77 80
11 05/11/2018 10:20:10 -0.81,-131.13 0.09,-135.47 493.06 80




NCC Satellite Simultaneous Nadir Overpasses (SNOs) Prediction Service
